Weather History for KBEH - October, 2011

Change the Weather History Date:

Wednesday, October 26, 2011

  Actual Average Record
Temperature  
Mean Temperature 54 °F -  
Max Temperature 63 °F 58 °F 80 °F (1963)
Min Temperature 46 °F 38 °F 19 °F (1990)
Degree Days  
Heating Degree Days 10    
Growing Degree Days 4 (Base 50)    
Moisture  
Dew Point 46 °F    
Average Humidity 89    
Maximum Humidity 100    
Minimum Humidity 60    
Precipitation  
Precipitation 0.00 in - - ()
Sea Level Pressure  
Sea Level Pressure 29.86 in    
Wind  
Wind Speed 6 mph (NNE)    
Max Wind Speed 12 mph    
Max Gust Speed 22 mph    
Visibility 8 miles    
Events      
Averages and records for this station are not official NWS values.
T = Trace of Precipitation, MM = Missing Value Source: NWS Daily Summary

Daily Weather History Graph

Daily Weather History Graph

Search for Another Location

Airport or City:

Trip Planner

Search our weather history database for the weather conditions in past years. The results will help you decide how hot, cold, wet, or windy it might be!

Date:

Astronomy

Oct. 26, 2011 Rise Set
Actual Time 8:10 AM EDT 6:47 PM EDT
Civil Twilight 7:42 AM EDT 7:16 PM EDT
Nautical Twilight 7:09 AM EDT 7:49 PM EDT
Astronomical Twilight 6:37 AM EDT 8:21 PM EDT
Moon 7:58 AM EDT (10/26) 6:28 PM EDT (10/26)
Length of Visible Light 11h 34m
Length of Day
10h 36m
Waning Crescent, 0% of the Moon is Illuminated
Oct 26
Waning Crescent
Oct 26
New
Nov 2
First Quarter
Nov 10
Full
Nov 18
Last Quarter

Hourly Weather History & Observations

Time (EDT) Temp. Windchill Dew Point Humidity Pressure Visibility Wind Dir Wind Speed Gust Speed Precip Events Conditions
12:53 AM 63.0 °F - 48.9 °F 60% 29.75 in 10.0 mi SW 11.5 mph 21.9 mph N/A   Overcast
1:53 AM 57.0 °F - 52.0 °F 83% 29.76 in 10.0 mi West 8.1 mph - N/A   Scattered Clouds
2:53 AM 55.9 °F - 52.0 °F 87% 29.74 in 10.0 mi SSW 5.8 mph - N/A   Partly Cloudy
3:53 AM 55.0 °F - 53.1 °F 93% 29.75 in 8.0 mi NNW 8.1 mph - N/A   Partly Cloudy
4:53 AM 51.1 °F - 50.0 °F 96% 29.75 in 5.0 mi Variable 3.5 mph - N/A   Clear
5:53 AM 52.0 °F - 50.0 °F 93% 29.77 in 6.0 mi Variable 4.6 mph - N/A   Overcast
6:46 AM 48.2 °F - 46.4 °F 93% 29.77 in 5.0 mi NE 3.5 mph - N/A   Overcast
8:28 AM 46.4 °F - 46.4 °F 100% 29.83 in 3.0 mi Calm Calm - N/A   Overcast
8:39 AM 46.4 °F - 46.4 °F 100% 29.84 in 2.5 mi Calm Calm - N/A   Overcast
8:53 AM 46.9 °F - 46.0 °F 97% 29.84 in 2.0 mi Calm Calm - N/A   Overcast
9:53 AM 48.0 °F - 46.0 °F 93% 29.85 in 2.5 mi North 4.6 mph - N/A   Overcast
10:40 AM 48.2 °F - 46.4 °F 93% 29.84 in 3.0 mi Calm Calm - N/A   Overcast
10:53 AM 48.9 °F - 46.0 °F 90% 29.84 in 3.0 mi NE 4.6 mph - N/A   Overcast
11:53 AM 48.9 °F - 46.0 °F 90% 29.87 in 4.0 mi Variable 4.6 mph - N/A   Overcast
12:53 PM 50.0 °F - 46.0 °F 86% 29.87 in 5.0 mi Variable 4.6 mph - N/A   Overcast
1:40 PM 50.0 °F - 46.4 °F 87% 29.87 in 8.0 mi NE 4.6 mph - N/A   Overcast
1:53 PM 50.0 °F - 46.0 °F 86% 29.88 in 8.0 mi Calm Calm - N/A   Overcast
2:24 PM 50.0 °F - 46.4 °F 87% 29.86 in 8.0 mi NNE 6.9 mph - N/A   Overcast
2:53 PM 48.9 °F - 46.0 °F 90% 29.86 in 8.0 mi NE 4.6 mph - N/A   Overcast
3:51 PM 48.2 °F - 46.4 °F 93% 29.86 in 10.0 mi NNE 5.8 mph - N/A   Overcast
4:53 PM 48.9 °F - 45.0 °F 86% 29.87 in 10.0 mi Variable 6.9 mph - N/A   Overcast
5:53 PM 48.0 °F - 45.0 °F 89% 29.90 in 8.0 mi Variable 3.5 mph - N/A   Overcast
6:53 PM 46.9 °F - 44.1 °F 90% 29.91 in 10.0 mi North 6.9 mph - N/A   Overcast
7:23 PM 46.4 °F 42.9 °F 44.6 °F 93% 29.90 in 10.0 mi NNE 6.9 mph - 0.00 in   Overcast
7:53 PM 46.9 °F - 43.0 °F 86% 29.91 in 10.0 mi Variable 4.6 mph - 0.00 in   Overcast
8:09 PM 46.4 °F 44.3 °F 42.8 °F 87% 29.90 in 10.0 mi NE 4.6 mph - N/A   Overcast
8:26 PM 46.4 °F 43.5 °F 42.8 °F 87% 29.91 in 10.0 mi NE 5.8 mph - N/A   Overcast
8:53 PM 46.0 °F 43.1 °F 43.0 °F 89% 29.92 in 10.0 mi Variable 5.8 mph - N/A   Overcast
9:30 PM 46.4 °F 42.4 °F 42.8 °F 87% 29.91 in 10.0 mi NE 8.1 mph - N/A   Overcast
9:53 PM 46.0 °F 42.5 °F 41.0 °F 83% 29.92 in 10.0 mi Variable 6.9 mph - N/A   Overcast
10:53 PM 46.0 °F 43.1 °F 41.0 °F 83% 29.94 in 10.0 mi Variable 5.8 mph - N/A   Overcast
11:28 PM 46.4 °F 44.3 °F 41.0 °F 81% 29.93 in 10.0 mi NE 4.6 mph - N/A   Overcast
11:53 PM 46.0 °F 43.9 °F 41.0 °F 83% 29.94 in 10.0 mi Variable 4.6 mph - N/A   Overcast